Weather in Alagir

Russia / Republic of North Ossetia — Alania     43°02′30″N   44°13′11″E
temp.,
°C
wind,
m/s
gust,
m/s
humid.,
%
clouds,
%
prec.,
mm/h
press.,
hPa
HPBL,
m
7 march, sun
sun700:00+3ssw4448100 0.0 101665
03:00+1w125994 0.0 101841
06:00−4wnw129685 4.6 1022195
09:00−4nne449592 5.8 1022413
12:00−4nne3388100 1.5 1022504
15:00−3ne2376100 2.2 1021697
18:00−4ne2280100 0.3 102272
21:00−6e018298 0.3 102321
8 march, mon
mon800:00−6w117511 0.0 102222
03:00−6ssw11766 0.0 102240
06:00−6wsw01730 0.0 102121
09:00−4n217015 0.0 1019302
12:00−2nne2270100 0.0 1017554
15:00−1nnw2271100 0.2 1016624
18:00−3wnw128499 0.1 1017126
21:00−4ssw127899 0.2 101924
9 march, tue
tue900:00−5ssw117252 0.0 101922
03:00−5sw117041 0.0 101822
06:00−6ssw116840 0.0 101922
09:00−2nne217033 0.0 1018353
12:000nne226917 0.0 1017661
15:00+1nne216330 0.1 1016763
18:00−1wnw117296 0.1 101927
21:00−4sw227992 0.3 102286
10 march, wed
wed1000:00−5ssw227764 1.0 102377
03:00−6ssw228060 0.9 102368
06:00−6ssw228482 0.3 102470
09:00−3nne228686 0.4 1022379
12:00−1nne348796 0.5 1020523
15:00−2nne349598 2.2 1018411
18:00−3ne3598100 1.8 1019362
21:00−4ne2494100 2.8 1019348
11 march, thu
thu1100:00−5nne2397100 0.6 1017210
03:00−5n2298100 2.2 1016186
06:00−5nne2398100 3.6 1017233
09:00−5ne3496100 5.6 1018346
12:00−5ne4597100 2.2 1018501
15:00−5ne5796100 5.3 1019599
18:00−8nne3597100 2.6 1021385
21:00−10nne1397100 4.1 1024173